When you browse on this site, cookies collect data to enhance your experience and personalize the content and advertising you see.
Visit our Privacy Policy to learn more. By continuing to use the site, you agree to this use of cookies and data.
  • In Spain
  • List of Countries
  • For 7 days
  • Water Temperature
  • Weather Map
  • Weather Widgets
  • user-avatar
    Login

    Hourly Weather Aktau

    Today, 29 May, Friday

    Time Temperature Precipitation Wind Pressure Humidity
    00:00 +25°C° 0 mm 2 mps 758 mmHg 42%
    01:00 +24°C° 0 mm 1 mps 757 mmHg 44%
    02:00 +24°C° 0 mm 1 mps 757 mmHg 46%
    03:00 +21°C° 0 mm 0 mps 757 mmHg 48%
    04:00 +24°C° 0 mm 1 mps 757 mmHg 44%
    05:00 +26°C° 0 mm 1 mps 757 mmHg 40%
    06:00 +27°C° 0 mm 2 mps 757 mmHg 36%
    07:00 +29°C° 0 mm 2 mps 756 mmHg 31%
    08:00 +33°C° 0 mm 3 mps 756 mmHg 26%
    09:00 +35°C° 0 mm 3 mps 756 mmHg 22%
    10:00 +36°C° 0 mm 4 mps 756 mmHg 20%
    11:00 +37°C° 0 mm 4 mps 755 mmHg 19%
    12:00 +38°C° 0 mm 4 mps 755 mmHg 18%
    13:00 +38°C° 0 mm 4 mps 755 mmHg 18%
    14:00 +38°C° 0 mm 4 mps 754 mmHg 18%
    15:00 +38°C° 0 mm 4 mps 754 mmHg 18%
    16:00 +37°C° 0 mm 4 mps 753 mmHg 19%
    17:00 +36°C° 0 mm 3 mps 753 mmHg 21%
    18:00 +34°C° 0 mm 3 mps 752 mmHg 22%
    19:00 +34°C° 0 mm 3 mps 752 mmHg 24%
    20:00 +33°C° 0 mm 3 mps 752 mmHg 25%
    21:00 +31°C° 0 mm 3 mps 752 mmHg 27%
    22:00 +30°C° 0 mm 3 mps 752 mmHg 28%
    23:00 +29°C° 0 mm 3 mps 752 mmHg 29%

    Tomorrow, 30 May, Saturday

    Time Temperature Precipitation Wind Pressure Humidity
    00:00 +29°C° 0 mm 4 mps 752 mmHg 31%
    01:00 +28°C° 0 mm 4 mps 752 mmHg 32%
    02:00 +28°C° 0 mm 5 mps 752 mmHg 33%
    03:00 +27°C° 0 mm 5 mps 751 mmHg 34%
    04:00 +28°C° 0 mm 5 mps 752 mmHg 33%
    05:00 +28°C° 0 mm 6 mps 752 mmHg 31%
    06:00 +29°C° 0 mm 6 mps 752 mmHg 30%
    07:00 +29°C° 0.3 mm 6 mps 753 mmHg 34%
    08:00 +28°C° 0.3 mm 6 mps 754 mmHg 39%
    09:00 +27°C° 0.3 mm 6 mps 754 mmHg 43%
    10:00 +28°C° 0.1 mm 7 mps 755 mmHg 44%
    11:00 +28°C° 0.1 mm 7 mps 755 mmHg 45%
    12:00 +28°C° 0.1 mm 8 mps 756 mmHg 46%
    13:00 +29°C° 0.1 mm 8 mps 756 mmHg 46%
    14:00 +29°C° 0.1 mm 8 mps 756 mmHg 46%
    15:00 +31°C° 0.1 mm 8 mps 756 mmHg 46%
    16:00 +29°C° 0 mm 9 mps 756 mmHg 48%
    17:00 +28°C° 0 mm 9 mps 757 mmHg 49%
    18:00 +28°C° 0 mm 9 mps 757 mmHg 50%
    19:00 +27°C° 0 mm 8 mps 757 mmHg 51%
    20:00 +27°C° 0 mm 7 mps 758 mmHg 52%
    21:00 +26°C° 0 mm 7 mps 758 mmHg 53%
    22:00 +26°C° 0 mm 6 mps 758 mmHg 51%
    23:00 +26°C° 0 mm 6 mps 758 mmHg 50%

    Day after tomorrow, 31 May, Sunday

    Time Temperature Precipitation Wind Pressure Humidity
    00:00 +26°C° 0 mm 6 mps 758 mmHg 49%
    01:00 +24°C° 0 mm 6 mps 758 mmHg 52%
    02:00 +24°C° 0 mm 6 mps 758 mmHg 55%
    03:00 +23°C° 0 mm 7 mps 758 mmHg 57%
    04:00 +23°C° 0 mm 7 mps 758 mmHg 55%
    05:00 +23°C° 0 mm 7 mps 758 mmHg 53%
    06:00 +23°C° 0 mm 7 mps 759 mmHg 51%
    07:00 +26°C° 0 mm 7 mps 759 mmHg 47%
    08:00 +27°C° 0 mm 7 mps 759 mmHg 43%
    09:00 +28°C° 0 mm 7 mps 759 mmHg 39%
    10:00 +29°C° 0 mm 7 mps 759 mmHg 36%
    11:00 +30°C° 0 mm 7 mps 759 mmHg 33%
    12:00 +32°C° 0 mm 8 mps 759 mmHg 30%
    13:00 +32°C° 0 mm 8 mps 759 mmHg 30%
    14:00 +33°C° 0 mm 8 mps 759 mmHg 29%
    15:00 +33°C° 0 mm 8 mps 758 mmHg 28%
    16:00 +32°C° 0 mm 9 mps 758 mmHg 29%
    17:00 +31°C° 0 mm 9 mps 758 mmHg 29%
    18:00 +29°C° 0 mm 9 mps 758 mmHg 29%
    19:00 +28°C° 0 mm 9 mps 758 mmHg 31%
    20:00 +27°C° 0 mm 8 mps 758 mmHg 32%
    21:00 +26°C° 0 mm 7 mps 758 mmHg 33%
    22:00 +24°C° 0 mm 7 mps 758 mmHg 35%
    23:00 +24°C° 0 mm 6 mps 758 mmHg 37%

    1 June, Monday

    Time Temperature Precipitation Wind Pressure Humidity
    00:00 +23°C° 0 mm 6 mps 758 mmHg 40%
    01:00 +23°C° 0 mm 6 mps 758 mmHg 40%
    02:00 +23°C° 0 mm 6 mps 757 mmHg 41%
    03:00 +22°C° 0 mm 6 mps 757 mmHg 42%
    04:00 +23°C° 0 mm 6 mps 757 mmHg 40%
    05:00 +24°C° 0 mm 6 mps 757 mmHg 38%
    06:00 +24°C° 0 mm 6 mps 757 mmHg 36%
    07:00 +27°C° 0 mm 6 mps 757 mmHg 31%
    08:00 +29°C° 0 mm 6 mps 757 mmHg 27%
    09:00 +30°C° 0 mm 6 mps 757 mmHg 22%
    10:00 +33°C° 0 mm 5 mps 757 mmHg 21%
    11:00 +34°C° 0 mm 4 mps 756 mmHg 20%
    12:00 +35°C° 0 mm 4 mps 756 mmHg 19%
    13:00 +35°C° 0 mm 4 mps 756 mmHg 18%
    14:00 +36°C° 0 mm 4 mps 755 mmHg 17%
    15:00 +37°C° 0 mm 4 mps 754 mmHg 17%
    16:00 +36°C° 0 mm 4 mps 754 mmHg 17%
    17:00 +36°C° 0 mm 4 mps 754 mmHg 18%
    18:00 +36°C° 0 mm 4 mps 753 mmHg 18%
    19:00 +34°C° 0 mm 5 mps 753 mmHg 21%
    20:00 +33°C° 0 mm 5 mps 753 mmHg 23%
    21:00 +30°C° 0 mm 6 mps 753 mmHg 25%
    22:00 +29°C° 0 mm 5 mps 753 mmHg 26%
    23:00 +29°C° 0 mm 4 mps 753 mmHg 28%

    2 June, Tuesday

    Time Temperature Precipitation Wind Pressure Humidity
    00:00 +28°C° 0 mm 3 mps 752 mmHg 29%
    01:00 +27°C° 0 mm 3 mps 752 mmHg 33%
    02:00 +26°C° 0 mm 3 mps 752 mmHg 37%
    03:00 +25°C° 0 mm 3 mps 752 mmHg 40%
    04:00 +25°C° 0 mm 3 mps 752 mmHg 40%
    05:00 +25°C° 0 mm 3 mps 751 mmHg 40%
    06:00 +25°C° 0 mm 3 mps 751 mmHg 40%
    07:00 +26°C° 0 mm 3 mps 751 mmHg 37%
    08:00 +28°C° 0 mm 4 mps 751 mmHg 35%
    09:00 +29°C° 0 mm 4 mps 751 mmHg 33%
    10:00 +29°C° 0 mm 5 mps 751 mmHg 33%
    11:00 +29°C° 0 mm 5 mps 751 mmHg 33%
    12:00 +30°C° 0 mm 6 mps 751 mmHg 34%
    13:00 +29°C° 0 mm 5 mps 751 mmHg 35%
    14:00 +29°C° 0 mm 4 mps 751 mmHg 36%
    15:00 +29°C° 0 mm 4 mps 751 mmHg 37%
    16:00 +28°C° 0 mm 4 mps 751 mmHg 39%
    17:00 +27°C° 0 mm 4 mps 751 mmHg 42%
    18:00 +26°C° 0 mm 5 mps 751 mmHg 44%
    19:00 +25°C° 0 mm 4 mps 752 mmHg 49%
    20:00 +25°C° 0 mm 4 mps 752 mmHg 54%
    21:00 +23°C° 0 mm 4 mps 752 mmHg 60%
    22:00 +23°C° 0 mm 4 mps 753 mmHg 58%
    23:00 +23°C° 0 mm 5 mps 753 mmHg 57%

    3 June, Wednesday

    Time Temperature Precipitation Wind Pressure Humidity
    00:00 +23°C° 0 mm 5 mps 753 mmHg 55%
    01:00 +23°C° 0 mm 6 mps 753 mmHg 55%
    02:00 +23°C° 0 mm 6 mps 753 mmHg 55%
    03:00 +23°C° 0 mm 6 mps 754 mmHg 54%
    04:00 +23°C° 0 mm 6 mps 754 mmHg 51%
    05:00 +24°C° 0 mm 6 mps 754 mmHg 48%
    06:00 +24°C° 0 mm 6 mps 755 mmHg 45%
    07:00 +27°C° 0 mm 6 mps 755 mmHg 40%
    08:00 +28°C° 0 mm 5 mps 755 mmHg 36%
    09:00 +29°C° 0 mm 5 mps 756 mmHg 31%
    10:00 +30°C° 0 mm 5 mps 756 mmHg 29%
    11:00 +32°C° 0 mm 5 mps 756 mmHg 27%
    12:00 +33°C° 0 mm 6 mps 756 mmHg 25%
    13:00 +33°C° 0 mm 6 mps 757 mmHg 25%
    14:00 +33°C° 0 mm 6 mps 757 mmHg 25%
    15:00 +33°C° 0 mm 7 mps 757 mmHg 25%
    16:00 +33°C° 0 mm 7 mps 757 mmHg 26%
    17:00 +32°C° 0 mm 7 mps 757 mmHg 27%
    18:00 +32°C° 0 mm 7 mps 757 mmHg 28%
    19:00 +30°C° 0 mm 7 mps 757 mmHg 30%
    20:00 +29°C° 0 mm 7 mps 757 mmHg 32%
    21:00 +28°C° 0 mm 7 mps 757 mmHg 34%
    22:00 +27°C° 0 mm 6 mps 757 mmHg 36%
    23:00 +27°C° 0 mm 6 mps 757 mmHg 37%
    Show more